THORAD DELTA 1 DEB, 8300

Orbit data source: Space-Track

THORAD DELTA 1 DEB, 8300 is space debris in SSO originally from a launch on Fri, 15 Nov 1974 UTC launched from the Air Force Western Test Range (AFWTR). Debris objects in space refer to the collection of defunct objects orbiting the Earth. Examples of debris include non-operational satellites, rocket bodies, and fragments generated from explosions, collisions, or faulty payload assembly.

Loading next visibility...
Identifier
8300, 1974-089BH
Orbit
SSO
Country
Flag of USUS
Related business
Manufacturer
Unknown
Mission
Spacecraft
Bus & Motor
Unknown
Mass
Unknown
Launch date (UTC)
1974-11-15 (51 years ago)
Launch vehicle
Unknown
Launch site
Air Force Western Test Range (AFWTR)
Object type
Payload
Rocket body
Debris
Shape & HBR
Unknown shape, 0.1 m
Radar Cross Section
Small (<0.1 m²)

Expand to show TLE details & history
Last TLE update: 6 hours ago

TLE from 6 hours ago
0 THORAD DELTA 1 DEB
1  8300U 74089BH  26104.82353595  .00000747  00000-0  80061-2 0  9997
2  8300 100.8890  74.0965 0350628 109.0134 284.5413 12.00594217534530
Epoch: 2026-04-14T19:45Z
TLE epoch observation values (Epoch: 2026-04-14T19:45:53.506Z)
Latitude
29.08475°
Longitude
-71.4836°
Altitude
1,619.967 km
Speed
7.09 km/s
True Right ascension
04h 31m 56s
True Declination
28° 57' 17"
Sunlit
Object was in daylight at epoch
Visualization orbit readout
Latitude
Unknown
Longitude
Unknown
Altitude
Unknown
Speed
Unknown
Apparent Right ascension
Unknown
Apparent Declination
Unknown
Sunlit
N/A
Visualization observer readout
Local Sidereal Time
08:08:28
Azimuth
Unknown
Elevation
Unknown
Doppler factor
Unknown
Orbital elements
Apogee altitude
1,958.153 km
Perigee altitude
1,393.369 km
Semi-major axis
8,053.898 km
Eccentricity
0.03506
Inclination
100.889°
RAAN
74.0965°
Arg. of periapsis
109.0134°
True anomaly
280.61194°
Mean anomaly
284.5413°
Eccentric anomaly
282.58058°
Mean motion
3.00285 °/min
Orbital period
119.89 mins
BSTAR
0.0080061
Loading maneuver chart data...
Computing Atmospheric mass density...

Documentation

Showing up to 5 results
|